Weather History for Deer Park, WA

Change the Weather History Date:

Monday, April 7, 2014

  Actual Average Record
Temperature  
Mean Temperature 48 °F 43 °F  
Max Temperature 64 °F 55 °F 72 °F (2007)
Min Temperature 31 °F 31 °F 24 °F (2008)
Degree Days  
Heating Degree Days 17 22  
Month to date heating degree days 146 156  
Since 1 July heating degree days 6398 6363  
Cooling Degree Days 0 0  
Month to date cooling degree days 0 0  
Year to date cooling degree days 0 0  
Moisture  
Dew Point 36 °F    
Average Humidity 63    
Maximum Humidity 86    
Minimum Humidity 40    
Precipitation  
Precipitation 0.00 in 0.06 in 0.49 in (2013)
Month to date precipitation 0.18 0.49  
Year to date precipitation 8.06 6.81  
Sea Level Pressure  
Sea Level Pressure 30.24 in    
Wind  
Wind Speed 5 mph (South)    
Max Wind Speed 14 mph    
Max Gust Speed 19 mph    
Visibility 10 miles    
Events      
T = Trace of Precipitation, MM = Missing Value Source: NWS Daily Summary

Daily Weather History Graph

Daily Weather History Graph

Search for Another Location

Airport:

Trip Planner

Search our weather history database for the weather conditions in past years. The results will help you decide how hot, cold, wet, or windy it might be!

Date:

Astronomy

Apr. 07, 2014 Rise Set
Actual Time 6:15 AM PDT 7:28 PM PDT
Civil Twilight 5:43 AM PDT 8:00 PM PDT
Nautical Twilight 5:05 AM PDT 8:39 PM PDT
Astronomical Twilight 4:24 AM PDT 9:20 PM PDT
Moon 12:04 PM PDT (4/7) 2:20 AM PDT (4/7)
Length of Visible Light 14h 16m
Length of Day
13h 12m
First Quarter, 54% of the Moon is Illuminated
Apr 7
First Quarter
Apr 15
Full
Apr 22
Last Quarter
Apr 28
New
May 6
First Quarter

Hourly Weather History & Observations

Time (PDT) Temp. Windchill Dew Point Humidity Pressure Visibility Wind Dir Wind Speed Gust Speed Precip Events Conditions
12:53 AM 39.9 °F - 28.9 °F 65% 30.21 in 10.0 mi Calm Calm - N/A   Overcast
1:53 AM 39.0 °F 36.8 °F 28.9 °F 67% 30.22 in 10.0 mi ESE 3.5 mph - N/A   Clear
2:53 AM 41.0 °F 36.4 °F 30.0 °F 65% 30.23 in 10.0 mi SSE 6.9 mph - N/A   Clear
3:53 AM 42.1 °F 38.4 °F 30.9 °F 65% 30.24 in 10.0 mi South 5.8 mph - N/A   Clear
5:53 AM 37.0 °F 33.3 °F 28.9 °F 73% 30.29 in 10.0 mi SE 4.6 mph - N/A   Clear
6:53 AM 39.0 °F 35.7 °F 32.0 °F 76% 30.30 in 10.0 mi SSE 4.6 mph - N/A   Overcast
7:53 AM 41.0 °F - 33.1 °F 73% 30.33 in 10.0 mi Calm Calm - N/A   Clear
8:53 AM 46.0 °F 42.5 °F 35.1 °F 66% 30.33 in 10.0 mi South 6.9 mph - N/A   Partly Cloudy
9:53 AM 50.0 °F - 36.0 °F 59% 30.33 in 10.0 mi South 4.6 mph - N/A   Clear
10:53 AM 54.0 °F - 37.9 °F 55% 30.33 in 10.0 mi SW 6.9 mph - N/A   Clear
11:53 AM 55.0 °F - 37.9 °F 53% 30.32 in 10.0 mi SE 6.9 mph - N/A   Clear
1:53 PM 61.0 °F - 39.0 °F 44% 30.26 in 10.0 mi SW 11.5 mph - N/A   Partly Cloudy
2:53 PM 61.0 °F - 39.0 °F 44% 30.24 in 10.0 mi South 4.6 mph - N/A   Mostly Cloudy
3:53 PM 64.0 °F - 39.9 °F 41% 30.21 in 10.0 mi SSW 12.7 mph - N/A   Mostly Cloudy
4:53 PM 63.0 °F - 39.9 °F 43% 30.21 in 10.0 mi South 10.4 mph - N/A   Scattered Clouds
5:53 PM 63.0 °F - 39.9 °F 43% 30.19 in 10.0 mi SSW 6.9 mph - N/A   Clear
6:53 PM 60.1 °F - 41.0 °F 49% 30.17 in 10.0 mi South 8.1 mph - N/A   Partly Cloudy
7:53 PM 50.0 °F - 39.9 °F 68% 30.17 in 10.0 mi Calm Calm - N/A   Clear
8:53 PM 45.0 °F - 37.9 °F 76% 30.18 in 10.0 mi Calm Calm - N/A   Clear
9:53 PM 43.0 °F - 37.0 °F 80% 30.17 in 10.0 mi Calm Calm - N/A   Clear
10:53 PM 41.0 °F - 37.9 °F 89% 30.15 in 10.0 mi Calm Calm - N/A   Clear
11:53 PM 39.9 °F - 36.0 °F 86% 30.15 in 10.0 mi Calm Calm - N/A   Clear